GFSWCAN_925_temp_231.txt.gz
Temp
8 8 9 9 9 9 9 9 9 10 11 11 12 12 12 11 10 10 16 19 19 20 21 24 26 25 25 24 22 21 23 27 23 21 21 21 21 20 21 20 21 21 22 25 24 25 27 23 24 26 22 21 23 24
8 8 8 9 9 9 9 9 9 10 11 12 12 12 12 11 9 9 12 18 19 19 21 22 23 25 27 28 26 22 26 27 25 19 19 19 19 19 19 22 21 21 21 19 24 24 24 23 22 20 19 22 23 24
7 8 8 9 9 9 9 9 9 10 11 12 12 12 13 12 10 9 10 15 17 20 23 24 25 28 29 29 30 25 26 26 26 26 22 19 20 18 19 22 20 20 19 21 24 25 25 24 22 21 22 24 24 24
8 8 8 9 9 9 9 10 10 11 12 12 12 12 13 13 12 9 10 16 16 20 21 26 29 29 29 29 29 29 28 28 29 27 25 22 21 18 20 19 19 19 21 24 23 22 21 24 25 25 24 24 24 28
8 8 8 9 9 9 10 10 11 12 12 12 12 13 13 14 14 14 14 17 17 19 20 21 24 28 29 29 29 29 28 27 26 25 26 26 22 19 20 18 19 20 22 22 22 23 23 24 24 25 28 27 26 29
7 7 8 8 9 9 10 10 11 12 12 13 13 13 13 14 15 14 18 19 18 20 20 22 28 29 29 28 28 28 26 26 26 26 25 26 28 25 25 23 22 21 23 22 22 25 24 26 27 26 26 28 28 29
7 7 8 9 9 9 10 11 11 12 13 13 14 14 14 15 15 17 19 18 19 19 19 22 25 28 28 28 27 26 28 26 26 25 25 26 25 25 25 22 22 22 23 23 23 23 23 24 24 25 26 24 25 28
7 7 8 8 9 9 10 11 12 13 14 15 15 16 16 16 17 17 20 19 18 18 21 22 24 25 28 26 25 26 26 25 25 25 25 25 24 25 21 21 22 22 23 23 22 23 23 23 23 23 22 22 21 23
6 7 7 8 8 9 10 11 12 13 15 17 17 17 16 16 19 20 19 19 18 18 19 23 24 24 26 25 25 25 24 23 24 25 25 25 24 20 21 20 20 21 21 21 22 20 21 21 20 21 21 19 20 19
6 7 7 8 8 9 10 11 11 13 16 17 18 17 20 20 19 19 18 19 19 20 20 22 24 23 25 24 23 24 24 24 23 24 25 24 20 20 20 20 20 20 21 20 19 18 19 19 18 19 19 18 18 18
6 7 7 8 8 9 10 10 10 13 15 15 16 18 16 19 19 21 21 21 22 22 23 23 24 23 23 22 22 22 22 23 23 24 24 23 20 20 20 19 20 19 19 19 19 19 19 19 17 18 18 17 17 16
6 7 7 8 8 9 10 10 10 9 11 10 8 9 13 19 21 21 21 22 22 22 24 23 23 24 22 23 22 22 23 23 23 24 24 22 20 20 20 19 19 19 19 19 19 19 18 18 18 17 17 17 16 15
7 7 8 8 9 9 10 10 10 10 11 11 10 15 19 19 17 20 21 22 22 23 23 22 22 23 22 23 23 22 23 22 24 23 23 20 19 19 19 19 18 20 20 20 19 19 18 18 18 17 16 15 16 15
7 8 9 9 10 10 10 11 11 11 9 15 19 12 19 21 22 23 23 23 23 24 23 23 23 23 22 22 22 22 23 23 23 23 20 18 20 19 20 19 20 20 20 20 20 20 18 18 17 15 15 15 15 14
7 9 9 10 10 10 11 11 11 10 13 17 20 14 21 23 23 24 23 24 24 23 21 20 22 23 22 22 22 22 22 22 21 19 19 18 19 20 20 20 20 19 19 19 20 19 18 18 17 16 15 14 13 13
8 10 10 10 10 10 11 11 11 12 16 18 19 20 22 22 19 21 21 23 23 22 20 20 22 21 22 22 22 22 22 21 18 18 16 16 18 19 18 18 19 19 19 19 19 19 19 19 18 16 15 14 13 13
9 9 10 10 10 12 12 11 15 15 18 20 21 22 22 22 18 16 16 17 15 22 19 21 21 21 22 21 22 21 19 19 19 18 17 17 18 19 19 19 20 20 19 18 19 19 19 19 18 17 16 16 15 14
8 9 10 10 10 11 13 12 16 18 18 19 19 20 20 18 16 14 14 14 16 16 16 16 19 21 21 21 19 17 16 15 13 17 17 18 18 19 19 18 19 20 19 19 19 19 19 19 18 17 18 17 17 15
8 10 11 11 9 8 13 17 16 17 19 19 18 14 14 14 15 13 13 13 14 14 14 14 19 19 18 18 17 16 15 14 13 17 17 19 19 19 19 19 19 20 20 19 20 19 19 19 19 19 19 18 17 17
12 11 11 12 10 11 14 16 17 16 18 17 19 17 14 15 16 15 13 13 13 13 15 19 18 18 19 16 16 16 15 15 18 18 17 17 19 19 19 19 19 19 19 19 19 19 19 19 18 19 19 19 18 18
12 12 12 12 12 12 15 16 17 17 18 18 18 18 16 17 15 15 15 14 15 15 15 18 18 17 15 14 15 14 17 17 17 17 16 17 18 19 18 19 19 19 19 18 18 18 18 19 18 19 19 19 19 20
10 11 12 13 14 15 15 17 16 17 18 19 19 18 16 17 15 15 15 16 16 15 13 17 18 17 17 17 17 19 18 18 18 18 18 18 17 17 18 18 18 17 18 18 18 17 17 19 19 19 20 20 20 20
11 12 13 14 15 12 12 17 16 17 16 15 17 16 17 17 16 15 13 15 17 16 18 18 18 19 18 19 19 18 18 18 17 17 18 19 19 19 19 19 18 17 16 17 17 18 18 19 19 19 19 19 20 20
11 12 13 15 16 13 18 17 17 17 17 17 16 15 16 17 19 17 16 16 14 13 12 15 16 17 18 18 17 17 17 18 18 18 18 19 19 19 19 18 18 16 16 16 16 17 17 18 18 18 19 19 20 20
10 11 12 9 16 17 17 18 19 18 19 20 19 17 16 17 18 18 16 16 13 12 13 14 16 18 16 16 16 17 17 18 17 18 19 19 19 19 19 19 19 18 17 16 15 15 17 18 18 18 19 19 19 20
9 15 13 16 17 17 17 18 19 19 19 19 20 21 21 20 19 17 16 16 16 16 16 17 17 16 16 16 15 16 15 17 17 18 20 20 20 20 18 17 18 19 19 18 18 18 18 19 19 19 18 19 19 19
10 15 17 17 18 18 18 19 19 20 19 19 19 19 20 18 18 16 15 17 16 17 18 18 18 18 16 18 18 18 18 18 19 19 21 21 21 21 21 20 20 20 20 20 19 19 19 18 18 19 19 19 19 20
16 16 16 17 18 19 18 18 18 19 18 18 18 18 18 18 17 17 18 19 19 19 19 18 19 19 17 16 17 18 19 19 20 20 21 21 21 21 21 21 21 21 21 21 21 21 21 21 21 21 21 21 21 21
17 18 19 17 18 18 19 18 18 18 19 19 18 17 18 18 19 16 17 18 18 19 18 17 18 19 15 15 18 19 18 18 19 19 19 19 19 19 21 21 21 21 20 21 20 21 21 21 20 20 20 20 21 21
19 19 18 18 19 18 18 17 17 15 14 16 18 18 19 15 17 18 17 18 18 17 18 18 19 18 19 15 16 18 18 18 18 19 17 19 19 20 20 20 21 21 21 21 21 21 20 21 20 20 20 20 20 20
19 19 19 19 19 18 20 17 15 14 12 12 15 16 15 16 17 16 17 17 18 18 19 19 18 18 19 19 18 16 16 18 19 18 19 19 19 19 19 20 20 20 20 21 21 21 21 21 21 21 21 20 20 20
19 20 20 19 20 22 20 17 14 14 15 15 15 15 16 16 15 15 18 17 18 18 18 18 18 18 19 19 19 19 19 19 18 19 18 19 19 19 19 19 20 20 20 20 20 21 21 20 20 20 19 19 19 19
21 21 21 21 21 21 17 18 16 15 14 15 16 16 17 17 16 18 18 18 18 17 18 18 18 19 19 19 19 19 19 19 19 19 18 18 18 18 19 19 19 19 19 19 19 19 19 18 18 18 18 18 18 17

GFSWCAN_925_temp_234.txt.gz
Temp
7 7 7 7 7 8 8 8 9 9 9 10 11 11 11 10 9 9 15 16 16 14 15 19 22 21 21 20 21 21 20 19 18 18 19 19 19 19 20 20 20 19 20 20 21 23 25 22 22 25 21 20 22 23
7 7 7 7 7 8 8 8 8 9 10 11 11 11 11 10 9 9 11 16 15 12 16 21 21 21 22 22 21 20 19 21 18 17 18 18 19 18 19 20 20 20 20 19 20 22 21 22 22 21 19 20 22 23
7 7 7 8 8 8 7 9 10 11 11 12 12 12 11 10 9 8 9 13 15 13 15 17 19 27 25 24 25 22 19 21 21 18 17 18 20 18 19 19 20 19 18 19 19 21 22 23 22 21 20 21 22 22
7 7 7 8 8 9 9 10 10 11 12 12 12 12 12 11 9 9 9 13 13 12 15 18 23 24 27 28 28 28 25 22 21 20 19 18 19 17 18 19 19 19 18 20 21 22 22 23 23 23 22 22 22 23
6 6 7 8 8 9 9 10 10 11 12 12 12 13 13 13 13 12 11 15 15 14 15 16 20 25 28 28 28 27 24 22 21 22 20 21 16 17 16 17 18 18 20 20 20 21 20 22 22 23 24 23 23 24
6 6 7 7 8 9 9 10 11 11 12 13 13 14 14 14 14 14 13 17 16 14 14 16 20 24 27 28 27 26 23 22 20 21 21 21 18 19 19 19 19 20 20 19 19 20 20 22 23 21 22 21 21 23
6 6 6 7 8 8 9 10 11 12 13 14 14 15 15 15 14 13 16 18 18 17 15 16 17 21 27 26 22 22 22 21 21 20 21 21 22 19 18 19 19 20 20 20 20 21 21 20 20 20 20 20 21 20
6 6 7 7 8 8 9 10 11 12 13 15 16 17 17 16 16 16 19 19 18 17 14 16 18 23 25 21 22 19 21 19 20 21 20 22 19 17 18 18 18 20 20 20 18 18 18 18 18 18 19 18 18 18
6 6 7 7 8 8 9 10 11 12 14 16 17 17 17 16 15 18 18 18 18 17 15 16 18 20 21 20 21 20 18 20 17 20 20 19 17 17 18 17 18 19 19 18 18 18 18 17 17 17 17 17 16 16
6 7 7 8 8 8 9 10 11 12 14 15 17 17 15 17 18 18 16 15 14 13 13 15 17 20 19 17 19 20 17 19 20 19 19 16 17 17 17 16 16 17 17 17 17 17 16 16 15 15 16 15 15 14
7 7 7 8 9 9 10 10 10 11 12 12 8 11 14 17 17 15 16 16 16 17 15 16 17 18 17 19 18 17 18 17 20 19 21 19 17 17 17 16 16 16 16 16 16 16 16 16 15 15 15 15 14 14
7 7 8 8 9 10 10 10 10 10 10 9 8 8 9 12 15 17 16 17 18 19 18 19 19 18 18 16 17 17 20 18 20 19 20 19 17 16 16 16 16 16 17 17 17 16 16 17 16 15 14 14 14 14
7 8 8 9 10 10 10 10 10 10 10 9 8 10 13 14 15 17 19 18 18 18 18 19 19 18 17 16 17 18 20 18 18 20 19 16 15 15 15 16 16 16 17 17 16 17 17 16 16 16 14 14 14 14
7 8 9 10 10 9 10 10 10 10 9 10 14 11 14 17 18 17 18 19 17 18 18 17 18 18 17 19 17 21 19 18 20 20 19 15 15 15 15 16 16 16 17 17 17 16 16 15 14 15 14 14 14 13
8 9 10 10 10 10 10 11 11 10 10 12 15 13 17 18 19 18 18 17 15 17 18 18 17 17 17 19 17 18 21 20 18 17 15 14 15 15 15 17 17 16 16 16 17 16 16 15 15 14 14 14 14 13
8 10 10 10 10 11 11 12 11 11 11 12 14 15 15 16 16 15 14 14 14 13 15 17 19 18 19 18 20 20 20 18 16 14 14 14 16 16 16 15 16 16 17 17 17 18 17 16 15 15 15 14 14 13
9 10 10 10 11 12 12 11 12 12 14 17 14 16 15 14 13 13 13 13 13 13 14 16 17 18 17 18 19 16 16 14 13 14 13 14 16 16 15 15 16 17 17 17 17 17 18 18 16 15 13 15 15 14
7 9 11 11 10 11 11 12 12 15 16 14 14 11 13 13 12 13 13 12 13 13 13 14 13 17 18 19 16 14 13 13 12 13 14 14 14 15 16 15 17 18 18 18 18 18 18 17 15 14 16 16 15 14
8 9 11 12 10 8 9 13 14 14 14 15 12 12 12 12 12 12 11 12 12 13 12 13 14 16 15 14 13 13 12 12 13 14 14 15 16 16 17 17 17 18 18 18 18 17 18 18 17 18 18 17 15 16
12 11 12 12 11 10 11 12 16 13 13 13 14 14 12 13 13 12 12 12 12 13 13 15 15 14 14 13 13 13 12 12 13 14 14 14 16 17 16 16 16 18 18 18 18 18 18 18 17 18 18 17 17 17
12 12 11 12 11 10 10 11 12 12 13 13 15 12 12 13 13 13 13 12 13 13 14 13 13 13 12 13 14 14 14 14 14 13 14 14 15 17 17 17 17 17 16 15 15 16 16 16 18 18 18 19 19 19
11 11 11 12 12 13 11 13 12 13 14 13 13 14 14 14 13 13 12 13 13 13 13 14 14 14 14 14 14 16 17 17 16 16 16 16 15 14 14 16 16 14 15 15 15 15 15 17 18 18 18 19 19 19
11 12 12 13 12 9 10 15 14 14 14 13 13 14 14 14 13 13 13 12 12 11 11 13 15 16 15 16 17 17 17 17 14 15 16 16 17 17 16 16 16 14 13 14 16 17 17 18 18 18 19 19 19 19
11 11 11 11 13 10 13 14 14 14 14 14 15 15 14 14 12 13 14 13 11 11 12 13 13 14 13 14 13 14 16 17 15 16 17 17 15 17 18 16 16 16 16 16 16 16 17 17 18 19 19 19 18 18
10 10 8 7 11 14 15 15 16 15 16 17 16 15 15 13 15 15 14 13 12 11 12 12 13 13 12 12 12 15 16 17 15 13 17 18 17 18 18 17 16 17 17 17 17 17 17 17 18 18 18 19 19 19
8 12 12 15 14 15 14 15 16 16 16 17 17 15 15 15 16 15 13 13 13 13 13 13 13 12 12 13 12 12 15 17 17 15 18 19 18 16 14 14 13 16 17 18 17 17 17 17 19 19 20 19 19 18
11 14 15 14 14 14 15 15 15 15 18 17 15 16 17 17 15 14 12 12 13 16 17 17 16 13 12 13 15 17 17 17 18 18 19 19 20 20 19 17 17 19 19 18 19 19 19 19 19 19 19 19 19 19
13 15 15 15 15 14 16 16 17 16 16 15 14 16 16 17 15 13 13 17 18 18 18 17 16 17 17 16 16 16 18 19 20 20 20 20 20 20 20 21 21 20 20 19 19 19 20 20 20 20 19 19 19 19
13 14 16 16 17 15 15 15 15 14 14 14 14 15 16 16 15 14 16 18 18 18 17 16 14 17 17 16 16 16 18 18 18 17 15 15 14 19 19 20 20 20 20 20 20 20 20 20 20 20 20 19 19 19
16 16 16 17 16 16 15 14 14 14 13 13 13 14 14 14 15 17 17 17 17 17 17 17 15 16 14 15 15 18 18 18 18 17 14 14 16 18 19 20 20 20 20 20 20 20 20 20 20 20 20 20 18 18
16 16 17 16 16 16 14 13 14 13 12 12 12 14 13 13 14 16 16 16 17 17 17 17 17 18 17 17 17 16 15 18 18 18 19 19 19 19 19 19 20 20 19 19 19 19 18 18 18 19 19 18 18 18
16 17 17 17 16 15 16 14 13 12 12 13 13 13 13 13 14 13 16 17 17 16 17 17 17 17 18 18 18 18 18 18 18 18 19 19 19 18 19 19 19 19 19 19 18 18 17 17 17 17 17 17 17 17
18 17 17 18 18 18 15 14 14 13 13 13 14 14 14 14 14 13 17 17 17 17 17 17 18 18 19 19 19 19 20 19 19 19 18 18 18 18 19 19 19 19 19 18 18 17 17 17 16 16 16 16 16 16

GFSWCAN_925_temp_237.txt.gz
Temp
6 6 7 7 7 7 7 7 7 8 9 10 11 11 11 10 9 9 12 12 12 12 12 17 19 20 20 19 20 20 19 19 18 19 19 18 18 18 19 20 20 20 20 20 19 22 23 21 23 24 21 21 21 22
6 6 7 7 7 8 8 9 9 10 10 11 11 12 11 9 9 8 9 12 12 10 14 17 18 20 20 21 19 18 19 20 19 17 17 17 18 17 18 19 19 20 19 19 20 21 20 20 21 21 19 20 22 22
6 6 6 6 7 8 8 9 9 10 10 11 11 11 10 9 9 8 8 10 11 10 12 13 17 23 22 21 21 20 17 18 19 17 17 18 20 17 18 18 19 19 18 19 20 22 22 22 21 21 20 20 22 22
6 6 6 6 7 8 8 9 9 10 11 11 12 12 11 9 9 8 8 10 10 10 13 15 20 21 23 23 22 22 22 20 18 17 17 17 19 17 18 19 19 18 19 19 20 22 22 22 22 21 21 21 20 21
6 6 6 6 6 7 8 9 9 10 11 11 12 12 13 12 11 9 9 11 12 12 13 13 17 23 25 25 23 22 21 19 18 19 18 19 16 17 16 17 18 17 19 19 20 20 20 21 20 20 20 20 20 20
6 6 6 6 7 7 8 8 10 11 11 12 13 13 14 13 13 11 12 15 14 12 12 14 17 19 24 25 26 25 20 18 18 19 19 16 17 17 18 18 19 18 18 19 20 20 19 20 19 19 19 19 19 19
6 6 6 7 7 8 8 8 9 11 12 13 14 14 15 15 13 12 15 15 14 13 13 16 16 19 23 22 20 20 19 19 19 18 20 19 18 16 17 19 19 18 19 19 19 20 20 18 17 18 18 18 18 18
7 7 7 7 8 8 8 9 10 11 12 13 14 15 16 16 14 15 17 17 15 14 12 15 16 19 22 20 21 16 19 17 17 18 18 19 17 16 19 17 17 18 17 17 17 17 17 17 16 16 17 17 16 16
7 7 7 8 8 8 9 9 10 11 13 14 15 16 16 15 13 15 16 16 16 16 14 14 16 18 19 18 18 20 16 19 15 18 18 18 16 19 18 16 18 18 19 16 16 16 16 16 15 15 15 15 15 14
6 7 7 8 9 9 9 9 10 11 13 14 15 15 14 15 16 16 14 13 13 12 11 13 14 18 18 16 17 20 15 17 19 18 16 16 16 16 16 15 15 16 16 16 17 17 16 15 15 14 14 14 14 14
7 7 7 8 9 9 10 10 9 11 12 12 7 9 12 15 15 13 15 14 14 15 12 13 14 17 16 18 18 15 17 15 19 18 19 16 16 16 15 15 14 14 15 15 15 15 15 15 14 14 14 14 13 13
7 7 7 8 9 10 9 10 9 8 8 7 7 7 8 11 13 16 15 15 16 17 15 16 16 16 17 14 17 16 19 16 20 16 18 18 15 15 15 15 15 15 15 15 16 15 16 16 15 14 13 13 13 13
7 8 8 8 10 10 10 10 9 9 9 8 8 10 12 14 15 17 18 17 16 16 17 17 18 16 16 14 15 16 19 17 16 18 18 16 14 14 14 15 15 15 16 16 16 16 16 15 15 14 13 13 13 13
7 8 10 10 10 10 10 10 10 10 8 9 12 10 14 15 16 17 17 17 16 15 15 16 16 19 16 18 15 20 17 17 19 18 19 14 14 14 14 15 15 15 16 16 16 16 16 15 14 14 14 13 13 12
8 10 11 11 10 10 11 10 11 10 8 10 12 12 15 17 16 16 15 14 14 13 13 15 16 16 17 19 16 17 20 19 17 17 15 13 13 13 14 15 15 15 15 15 16 15 15 15 14 14 14 14 14 13
8 11 11 10 10 12 11 11 10 10 9 10 12 14 14 15 15 14 14 14 12 13 14 14 16 18 19 18 18 19 19 17 16 14 12 13 14 14 14 15 15 16 16 15 16 16 16 15 14 14 15 14 14 14
9 10 10 10 11 12 11 11 11 10 11 15 14 13 13 12 12 12 12 12 12 12 12 13 15 17 16 17 17 15 16 15 13 13 12 13 14 13 13 13 14 14 15 15 15 16 16 17 15 14 12 15 15 14
7 9 11 11 10 11 11 11 11 12 15 13 13 12 11 11 11 11 11 10 12 12 12 13 13 15 16 17 15 14 12 12 11 12 13 13 13 13 14 14 15 16 16 16 17 17 16 15 13 13 15 15 14 14
7 9 11 11 9 8 8 12 12 12 13 13 13 11 11 11 11 10 11 11 11 12 12 12 13 15 15 13 13 12 11 11 12 12 12 14 14 14 15 15 16 16 16 16 16 16 16 17 16 17 16 15 15 15
12 12 11 11 11 9 10 10 12 12 12 11 11 12 11 11 11 12 11 11 12 13 14 13 13 13 13 13 11 11 11 11 12 13 13 12 14 15 15 15 15 16 16 17 17 17 17 17 16 17 16 16 16 16
12 11 11 11 11 10 9 10 11 10 11 11 11 11 12 12 13 12 12 12 12 13 13 13 13 12 11 11 12 12 12 12 12 12 13 13 14 14 15 15 15 15 14 14 14 14 15 15 16 16 17 17 17 18
11 10 11 12 11 10 9 11 11 11 11 11 12 11 12 13 13 13 11 12 12 12 12 12 12 12 12 13 13 14 15 15 14 14 14 14 13 12 13 14 14 12 13 14 14 14 15 16 16 16 17 17 18 17
10 11 11 11 11 8 10 12 13 12 13 14 13 14 13 12 12 11 13 12 12 11 11 11 12 13 13 14 15 15 15 15 12 13 14 15 15 15 15 14 14 13 12 13 15 15 15 16 17 16 16 17 18 17
10 10 9 10 10 10 11 13 12 12 12 13 13 15 15 13 11 12 13 11 10 10 11 11 11 12 12 13 12 12 14 15 14 14 15 16 15 14 15 15 15 14 14 14 15 15 16 16 17 17 18 18 18 18
8 10 8 8 10 13 13 13 15 15 15 15 16 16 14 12 14 14 13 12 11 11 10 10 11 11 12 11 11 13 14 15 14 13 16 17 16 16 16 15 16 15 15 16 16 17 17 17 17 17 17 17 17 17
7 11 12 14 13 13 13 14 14 15 14 16 16 14 12 13 14 14 13 12 11 12 12 11 11 11 11 11 11 11 14 16 16 14 16 16 16 16 13 13 12 16 17 17 17 17 17 17 17 18 18 18 18 17
10 13 12 10 12 12 13 12 12 13 15 15 13 14 15 15 15 13 11 11 11 14 14 14 15 12 11 12 14 16 17 16 17 17 18 18 18 17 17 16 16 19 19 18 18 18 18 18 18 18 18 18 18 19
10 12 13 13 13 13 15 15 15 15 15 12 13 15 16 16 14 12 11 15 15 15 15 15 14 15 16 16 16 17 18 18 19 18 18 18 18 18 19 18 19 20 20 20 19 19 19 19 18 18 18 18 19 19
12 13 14 15 16 14 14 15 15 14 13 13 14 14 14 13 13 13 15 15 15 16 15 15 16 16 16 17 17 16 16 18 18 15 15 14 13 18 19 19 19 20 20 19 20 19 19 19 19 19 18 18 18 18
15 13 15 16 16 15 15 14 14 14 12 12 12 13 13 12 13 15 15 15 14 15 17 17 16 15 14 14 14 16 17 18 18 17 14 15 16 18 18 19 19 19 20 19 19 19 19 20 19 19 18 18 17 18
14 15 15 16 16 15 13 13 12 11 11 11 12 13 13 12 13 14 15 15 15 16 16 16 16 15 15 15 15 15 15 18 18 18 17 18 18 18 18 18 18 19 19 18 18 18 18 18 18 17 17 17 16 16
14 15 15 16 16 13 13 13 11 11 11 12 12 11 12 12 13 12 15 14 15 15 15 15 16 17 18 18 18 18 18 18 18 18 18 18 18 18 18 18 18 18 18 18 18 18 17 17 16 16 16 15 15 15
13 13 15 16 16 15 13 13 13 13 12 12 13 12 12 12 13 13 15 15 16 17 17 17 17 17 17 18 18 18 18 19 19 18 18 17 17 18 18 19 18 18 18 17 17 16 16 16 16 15 15 15 15 15

GFSWCAN_925_temp_240.txt.gz
Temp
6 6 6 6 7 7 7 8 9 9 9 9 9 10 9 9 8 8 10 10 10 10 11 15 17 19 19 17 19 18 19 19 18 19 19 18 18 17 19 20 20 20 19 20 19 21 24 21 22 24 21 20 21 22
6 6 6 6 6 7 7 8 9 9 10 10 11 11 9 9 8 8 8 10 10 8 12 15 17 19 20 20 17 16 18 18 18 18 17 16 18 16 17 20 18 20 19 19 20 20 20 20 21 21 19 20 22 21
5 6 6 6 6 6 7 8 8 9 10 11 11 11 10 9 8 8 8 9 10 8 10 12 15 19 19 19 20 18 16 17 17 16 16 16 18 16 18 17 19 18 17 18 20 21 20 21 21 20 20 20 20 21
5 5 6 6 6 6 7 7 8 9 10 11 11 11 10 9 8 8 8 9 9 8 12 14 18 19 21 21 19 20 19 17 17 16 17 18 19 17 17 19 18 18 18 19 19 20 22 21 19 19 20 20 20 20
6 6 6 6 6 6 6 7 8 9 10 11 11 11 11 9 9 9 8 8 10 11 13 13 15 20 21 21 19 19 18 18 16 17 18 19 16 16 15 16 17 17 18 19 19 19 19 18 18 19 19 18 18 19
6 6 7 6 6 7 7 7 8 9 10 11 11 11 11 11 11 9 10 11 11 10 11 13 15 17 20 20 19 17 16 16 16 18 17 16 16 17 18 18 18 17 17 17 18 18 17 17 18 18 18 18 18 17
7 7 7 7 7 7 8 7 8 10 11 12 12 12 13 13 11 11 13 13 13 11 11 14 15 18 20 20 17 18 17 16 17 17 17 17 17 16 17 19 18 17 17 17 18 17 17 17 16 16 17 17 17 17
7 7 7 7 8 8 9 9 10 11 12 12 13 14 15 14 11 13 14 14 12 12 11 13 15 17 20 19 20 14 17 16 15 17 16 17 16 16 19 17 17 17 16 16 16 16 16 16 16 16 16 16 16 15
7 7 7 7 8 8 9 9 10 11 12 13 13 14 14 13 12 13 13 15 13 13 13 13 15 18 16 16 15 17 15 19 14 18 17 17 16 19 18 16 16 17 18 15 15 15 15 15 15 15 15 14 14 14
7 7 7 7 8 8 9 9 10 11 13 13 14 13 13 13 13 13 11 11 11 11 10 12 12 15 16 15 18 17 16 17 19 17 15 15 16 15 15 15 15 15 15 16 18 17 15 14 14 14 14 14 13 13
7 7 7 8 7 8 10 9 9 11 12 11 6 8 10 13 13 12 14 14 13 14 11 11 12 16 15 18 17 14 17 15 18 17 18 16 16 15 14 15 15 15 14 14 14 14 14 15 14 13 13 13 13 13
7 8 8 8 9 10 10 9 9 8 7 7 7 7 8 10 12 15 14 14 14 16 14 14 14 14 16 13 16 15 19 17 19 15 17 17 15 14 14 14 14 14 14 14 15 14 15 14 14 13 13 12 12 12
8 8 9 10 11 10 9 10 10 8 8 8 8 10 12 12 13 16 17 16 16 14 14 14 16 15 15 13 14 16 19 17 15 17 18 16 14 14 14 14 14 14 15 15 15 15 15 14 14 13 13 13 13 13
8 9 10 11 10 9 9 11 10 8 7 8 11 10 13 15 16 16 15 16 15 14 14 14 16 16 15 17 14 20 17 16 18 18 18 14 13 13 13 14 14 15 15 15 15 15 15 14 14 14 14 13 13 12
8 10 11 10 9 10 11 11 10 8 8 10 11 12 16 15 14 15 14 14 14 13 13 14 15 14 16 18 15 16 18 18 17 17 14 12 13 13 13 14 14 15 14 15 15 15 15 15 14 14 14 13 13 13
8 11 11 10 10 11 11 10 10 10 9 10 11 13 14 14 15 13 12 12 12 12 12 13 14 15 17 17 18 18 17 17 16 13 12 12 13 13 14 14 14 14 14 14 15 15 15 14 14 14 14 14 14 13
8 10 10 10 10 11 10 10 10 10 11 13 13 12 11 11 11 11 11 11 10 11 12 13 14 15 13 15 17 15 16 14 13 12 11 12 13 14 13 13 13 14 14 14 14 15 15 15 15 14 13 14 14 14
7 9 11 11 9 9 11 11 10 11 14 12 14 12 10 10 11 10 10 11 12 11 11 12 12 13 14 16 15 13 12 11 11 12 12 12 13 13 13 13 14 14 14 15 15 15 15 15 14 13 14 15 14 14
6 9 11 10 9 8 7 11 11 12 12 12 11 11 10 10 11 11 11 11 11 11 12 12 13 14 14 13 13 11 11 11 12 12 12 12 13 13 14 14 15 15 15 15 16 15 16 16 15 15 15 15 14 15
12 11 11 11 10 9 10 10 11 11 12 11 9 10 10 11 11 12 12 11 12 12 13 13 13 13 13 12 11 12 11 10 11 12 12 11 13 14 14 14 13 14 15 16 16 16 16 16 17 16 16 16 15 16
11 11 11 11 10 9 8 9 10 10 10 11 10 10 11 12 12 12 12 11 12 13 13 13 13 12 11 11 11 11 11 11 12 12 13 13 13 13 13 14 14 14 13 13 13 14 14 14 15 15 15 16 16 17
10 10 10 11 10 9 9 10 10 9 11 12 11 10 12 13 13 12 11 12 12 12 12 12 12 12 12 12 12 13 13 13 13 13 13 13 12 12 12 13 13 12 13 13 13 13 14 14 15 15 15 16 17 18
10 10 10 10 10 8 10 10 12 12 13 13 12 14 13 12 11 10 12 12 12 11 11 11 11 12 12 13 13 13 14 14 12 12 13 13 13 13 13 13 13 12 11 13 13 13 14 15 15 15 15 16 17 18
10 9 9 9 9 10 10 12 10 11 11 12 14 15 14 12 11 12 13 12 11 10 10 10 11 11 11 12 11 11 12 13 13 14 14 15 13 13 14 14 14 14 13 13 14 14 15 15 16 16 16 16 16 16
8 10 8 7 9 12 13 12 13 13 14 14 15 14 13 12 14 14 13 12 11 10 10 10 10 10 11 10 10 12 13 14 13 13 15 15 15 15 15 15 15 15 15 15 15 15 15 16 16 16 16 16 16 17
8 11 11 13 12 13 12 13 13 13 12 14 14 12 11 12 14 14 12 12 11 11 11 11 11 11 10 10 11 12 14 14 16 14 15 15 15 15 13 13 12 16 16 16 16 16 17 17 17 17 17 17 17 16
10 12 11 8 10 11 12 11 11 12 14 15 13 13 13 15 14 13 10 10 11 13 13 13 13 11 11 12 14 15 16 16 16 16 16 17 18 18 17 16 16 18 18 18 17 18 18 18 17 18 18 18 18 18
10 10 12 12 13 11 14 14 13 13 13 11 12 14 15 15 14 12 11 13 14 14 14 14 14 14 13 14 14 15 16 17 17 17 17 17 18 18 18 19 19 19 19 19 19 19 19 18 18 18 18 18 19 18
11 11 12 14 15 14 14 13 13 13 12 13 13 13 13 12 12 11 13 13 14 14 13 14 14 15 15 16 17 16 17 17 17 15 15 14 14 17 18 19 19 19 20 20 19 19 19 19 18 18 17 17 17 18
13 13 14 15 15 15 14 12 12 12 10 12 12 13 12 12 12 12 13 13 13 14 14 15 15 16 15 14 15 16 16 16 17 16 15 15 16 17 18 18 18 18 19 19 19 19 18 18 18 17 16 16 15 15
12 13 15 15 15 14 13 11 11 10 10 10 11 12 12 12 13 13 14 14 14 14 15 15 15 15 15 15 14 14 15 17 17 17 17 17 17 17 18 18 18 18 18 18 18 17 17 17 16 16 15 15 15 15
12 14 13 15 15 13 12 12 11 11 10 11 11 10 11 12 11 11 14 14 14 14 15 15 15 15 16 16 16 16 17 17 17 17 17 17 17 17 18 18 18 17 17 18 17 17 17 17 16 16 15 15 15 15
12 12 13 13 15 15 12 13 12 13 12 12 12 11 11 12 12 11 15 15 15 15 15 16 16 17 17 18 18 18 18 19 18 18 18 18 18 18 18 17 17 17 17 17 17 17 16 16 16 16 16 15 15 15

GFSWCAN_925_temp_246.txt.gz
Temp
5 5 6 6 6 6 6 6 7 7 7 7 7 8 8 8 8 9 13 11 14 20 23 23 23 24 25 26 27 25 26 26 27 27 29 30 29 30 29 31 30 30 31 32 32 32 31 29 29 31 29 29 29 30
6 6 6 6 6 6 6 6 7 7 7 7 7 7 8 8 8 8 13 11 11 15 21 19 20 21 23 25 26 25 25 25 27 27 27 27 28 28 29 30 28 28 30 30 30 31 27 28 28 27 28 29 29 29
7 7 6 6 6 6 6 7 7 7 7 7 7 8 8 8 8 8 10 11 12 17 21 22 24 23 21 22 24 25 26 26 25 25 27 26 25 27 27 29 28 27 27 28 28 28 28 27 27 28 28 28 28 29
7 7 7 7 6 6 6 7 7 7 7 8 9 10 9 8 8 8 9 12 12 18 20 25 23 23 22 23 23 24 26 24 26 25 26 26 27 25 27 26 27 28 26 28 28 27 26 26 27 27 27 28 28 28
7 7 7 7 7 7 7 7 7 9 9 10 10 10 8 8 8 8 9 9 11 16 21 23 24 25 23 23 23 23 25 26 26 26 26 26 26 25 23 25 28 27 28 28 29 28 27 26 25 26 26 26 26 27
8 7 7 7 7 7 8 7 8 10 10 10 10 9 8 8 8 9 16 10 9 12 18 22 26 25 24 23 23 24 25 25 26 26 27 26 25 23 24 26 26 26 25 26 26 26 27 25 25 25 25 24 25 24
8 8 8 7 7 7 7 8 10 10 10 10 11 11 10 8 8 15 17 13 10 12 18 22 25 26 24 24 25 25 25 25 26 27 27 28 27 24 27 26 25 24 24 24 25 25 24 25 24 24 24 24 23 24
8 8 8 8 8 7 6 8 10 10 11 11 10 13 14 10 8 14 13 11 10 15 19 21 24 25 26 27 26 27 26 26 26 27 27 27 26 26 26 27 24 23 24 24 24 24 26 24 23 22 23 23 23 23
8 8 8 8 7 7 8 10 10 11 11 12 11 11 11 13 17 15 12 12 11 15 20 22 24 26 26 27 27 26 27 27 27 26 27 27 27 25 27 25 24 23 23 23 23 23 23 23 22 22 23 22 23 22
8 8 8 8 7 7 10 9 10 11 12 12 11 16 19 15 12 11 11 16 17 18 19 21 24 24 25 26 26 27 27 23 23 25 26 26 27 26 23 25 24 23 23 23 22 21 22 22 22 22 22 21 21 21
8 8 8 7 7 9 10 9 9 11 12 13 16 18 13 12 14 18 18 19 21 20 21 22 23 23 26 25 26 25 23 24 24 24 26 26 26 26 23 23 22 22 23 23 23 22 23 22 22 22 21 20 20 20
8 8 8 7 8 10 9 9 8 8 10 9 9 8 11 17 17 18 20 21 20 21 21 20 20 22 24 23 23 24 25 24 22 26 26 26 26 22 22 22 21 22 22 22 21 21 21 21 21 20 20 20 20 19
9 9 9 8 10 9 9 10 9 7 7 9 10 15 18 19 15 19 20 20 19 19 19 18 19 21 22 22 22 21 22 24 25 25 25 26 22 22 21 21 21 22 22 21 21 21 20 20 19 20 19 19 19 19
9 9 9 10 9 8 9 10 10 7 10 16 17 13 18 19 20 19 19 19 19 18 19 17 16 19 22 22 23 22 24 25 24 24 25 26 22 21 21 21 21 21 22 22 21 21 20 20 20 19 19 19 19 19
9 10 11 10 9 9 9 9 9 9 14 17 18 15 20 20 20 20 20 19 19 19 18 17 16 17 19 20 22 23 23 23 24 25 26 24 22 21 21 21 22 22 22 22 21 21 21 20 20 20 19 19 18 18
9 11 10 10 10 10 10 9 8 11 15 17 18 20 20 21 21 21 19 18 19 18 19 18 16 15 15 15 19 21 23 23 24 23 22 21 20 21 21 22 22 22 21 22 21 21 21 21 21 20 19 19 19 18
9 10 10 10 10 11 10 10 13 16 18 18 19 19 20 19 18 17 17 16 16 18 18 18 18 16 15 15 15 20 19 20 22 21 21 20 20 20 20 21 21 21 20 20 20 20 21 20 20 20 20 20 20 19
9 9 10 10 8 8 12 13 16 17 18 19 18 19 18 17 16 16 15 14 15 16 17 17 18 17 17 17 17 16 17 16 18 20 20 19 19 19 20 20 19 20 20 20 21 21 20 20 20 21 20 19 20 20
7 9 10 10 9 9 15 16 16 18 19 19 19 19 17 16 13 12 12 12 13 13 14 17 17 18 18 17 16 16 16 17 19 20 19 19 19 19 20 20 20 20 20 20 20 22 22 20 20 21 20 20 22 21
11 10 10 10 10 13 16 17 15 17 19 19 19 19 17 15 12 12 13 13 14 14 14 15 16 16 16 13 14 13 13 16 17 19 20 20 20 19 19 20 21 19 19 19 20 19 21 21 19 18 19 20 21 21
10 11 10 10 12 13 16 18 18 18 19 19 19 18 16 14 12 12 12 12 15 14 13 12 13 13 11 11 11 12 14 18 17 18 18 20 20 20 20 20 20 21 21 21 22 20 19 21 21 19 19 20 21 21
10 10 11 12 14 15 15 17 18 18 17 19 19 19 18 17 14 13 12 13 12 12 12 12 12 12 13 13 15 17 17 18 18 19 19 19 21 21 20 20 20 21 21 20 20 20 19 20 20 20 20 20 19 21
9 10 13 14 15 14 15 16 18 18 18 19 20 19 18 18 17 14 14 16 13 13 12 12 13 13 14 15 16 17 18 19 20 20 20 20 19 19 19 19 19 19 19 17 18 18 19 18 18 20 20 20 21 20
9 12 15 16 16 15 18 19 19 19 20 20 19 18 19 19 19 18 17 16 16 17 15 15 15 15 16 16 17 19 19 20 20 20 21 21 20 19 19 18 19 19 18 17 17 18 18 18 18 20 20 20 20 20
10 13 14 9 17 18 18 19 19 20 19 20 19 19 18 20 19 18 17 17 16 16 16 16 17 17 17 17 17 19 18 20 21 21 20 21 21 21 20 20 20 19 20 18 16 18 16 17 18 20 21 21 21 21
11 16 13 18 18 18 18 18 19 18 19 19 19 20 19 20 19 18 17 16 17 17 17 18 17 17 17 18 18 19 19 18 20 20 20 21 21 21 22 22 22 20 20 21 21 21 21 21 21 21 21 21 19 20
14 17 18 17 17 18 19 19 19 19 19 18 18 18 18 19 18 17 17 14 15 17 16 16 17 17 17 18 18 18 18 18 19 20 19 20 20 20 21 22 21 20 20 20 21 21 21 21 21 21 21 21 21 21
17 17 17 18 18 18 18 18 18 17 17 17 16 15 17 17 17 16 16 16 17 18 18 17 15 17 17 17 18 19 19 19 19 20 20 21 21 20 20 20 20 19 19 18 19 20 21 20 20 20 20 20 20 19
18 19 19 19 18 18 18 18 18 18 17 17 16 14 12 14 16 15 15 15 16 18 19 18 17 17 18 18 19 19 20 21 21 21 21 21 22 21 20 20 20 20 20 19 18 18 18 19 19 19 19 19 19 19
18 19 18 18 16 18 18 19 19 19 19 18 17 15 12 12 13 14 15 16 15 16 18 17 16 17 19 20 20 19 20 20 20 21 21 21 21 21 20 20 20 20 20 20 20 19 18 18 19 19 19 19 18 19
19 19 18 19 19 19 18 19 19 19 18 17 16 16 16 13 12 12 13 14 14 17 17 18 19 19 20 20 19 21 21 20 19 19 19 19 20 20 20 19 20 20 20 20 20 20 20 20 20 19 19 19 18 18
20 19 20 19 19 18 18 19 19 19 19 17 16 15 15 14 14 15 16 16 17 18 17 18 18 19 18 19 19 19 19 20 20 19 19 19 19 19 19 19 20 20 20 20 20 20 20 19 19 19 19 19 19 18
20 20 20 20 19 19 19 18 19 19 19 18 17 18 17 17 15 13 15 15 15 16 17 18 16 17 18 19 20 20 19 20 19 18 18 18 18 18 18 19 20 20 19 20 19 19 20 20 19 19 18 19 19 18